sat.trackr.live / text

‹ back to catalog

CHUANGXIN 19 (CX-19)

NORAD 58505 · 2023-190A

PAYLOAD ACTIVE UNKNOWN

§ Identity

Operator
Country
PRC
Launch date
2023-12-05
Launch site
SCSLA
Launch vehicle
Mass (kg)
RCS (m²)

External: N2YO · Heavens-Above · Gunter

§ Orbital elements

Epoch: 2026-09-21T23:32:55.589280Z

Period
107.50 min
Inclination
86.4996°
Eccentricity
0.0001945
Mean motion
13.39558487 rev/d
Perigee alt
1,109.5 km
Apogee alt
1,112.4 km
Semi-major
7,489.1 km
B*
4.6204e-5
RAAN
299.0923°
Arg perigee
107.9815°
Mean anomaly
252.1540°
Rev number
13,765

§ Raw data

CHUANGXIN 19 (CX-19)1 58505U 23190A   26264.98119895  .00000040  00000+0  46204-4 0  99912 58505  86.4996 299.0923 0001945 107.9815 252.1540 13.39558487137655

JSON: /api/v1/satellites/58505 · /tle

For live sub-satellite position, see the globe view (requires WebGL).

§ Visibility from observer

Set your observer location to see the next 7 days of passes ≥ 10°. The values pass through the URL so the page stays shareable.

No JS? Fill the form by hand. The geolocation button needs JavaScript.